Theta_e
312 312 325 321 299 299 293 295 302 304 304 309 310 309 307 309 306 305 321 320 329 340 345 348 347 348 349 350 350 351 352 350 352 352 351 350 349 347 346 346 347 347 345 344 345 344 344 343 343
308 315 322 311 294 291 293 299 300 303 307 307 308 309 307 307 320 317 311 313 326 342 345 346 345 347 349 349 350 350 350 350 350 352 351 350 349 347 346 345 347 347 345 345 344 341 342 342 342
307 316 308 300 294 291 292 295 298 300 302 303 304 306 307 309 314 306 308 311 318 339 344 346 344 347 348 348 349 349 349 349 350 350 350 350 349 348 347 346 347 346 345 343 342 340 340 340 341
313 313 307 296 292 295 294 299 297 299 301 300 301 302 307 305 308 304 307 309 309 320 342 344 345 348 348 347 348 348 349 349 348 349 348 349 348 348 346 346 345 345 344 343 341 340 338 339 339
311 305 293 291 293 296 299 298 296 297 298 298 298 300 300 306 306 305 305 308 308 308 322 345 343 345 347 347 347 347 347 348 348 348 347 346 347 347 345 345 344 344 343 342 340 339 337 338 337
300 300 289 289 291 294 296 294 295 295 296 296 296 295 299 309 307 303 304 305 308 308 310 320 338 339 341 344 346 346 346 346 346 346 346 346 345 345 345 345 344 344 342 343 342 339 338 337 337
295 293 289 290 289 291 292 294 293 292 293 294 295 292 301 309 305 302 303 305 307 309 310 314 315 326 331 336 339 342 344 344 344 344 344 342 342 343 344 342 343 343 343 341 341 338 337 337 337
300 295 287 289 288 288 291 292 292 291 291 295 295 293 296 303 302 302 304 305 306 308 309 314 315 316 323 342 332 334 338 340 341 340 338 336 337 338 338 336 340 342 341 340 339 337 337 336 335
296 288 286 286 287 289 291 288 292 293 291 292 294 294 297 299 300 301 302 304 305 306 308 311 314 314 318 322 337 329 331 334 334 336 332 332 342 342 339 334 335 339 338 337 337 337 336 333 331
292 287 284 289 290 288 289 288 289 289 290 291 293 296 298 298 299 299 300 301 303 304 304 307 310 314 316 320 332 339 344 343 342 343 343 343 342 340 337 331 329 333 333 335 335 334 332 328 330
288 286 287 287 289 289 288 288 291 289 288 292 291 294 296 297 298 299 300 301 302 304 306 307 307 311 316 325 327 337 338 342 344 342 343 343 342 340 338 336 334 335 327 333 331 330 329 329 328
285 286 287 288 288 288 288 291 289 290 291 295 296 296 296 296 297 298 299 300 302 304 305 306 309 309 313 320 322 322 327 339 340 342 343 342 341 341 337 335 334 333 333 331 331 330 329 328 327
286 286 288 290 290 290 291 289 289 291 295 296 296 295 295 296 297 299 300 302 302 302 304 306 308 310 311 315 320 322 321 320 336 339 341 342 340 339 338 336 335 334 332 330 328 327 328 326 324
289 289 289 290 290 290 288 289 289 291 293 293 294 294 296 296 297 298 299 300 301 302 304 306 306 308 310 314 313 316 322 323 319 336 338 340 340 338 337 336 334 333 332 331 329 327 326 324 322
289 285 288 288 289 288 289 287 286 292 293 292 293 294 295 294 294 295 298 299 301 302 304 304 305 307 307 308 314 314 319 319 318 326 336 337 338 336 334 335 334 333 332 330 329 328 327 325 323
284 285 283 288 288 288 287 283 288 293 291 290 291 293 291 292 292 294 295 295 297 300 301 303 304 305 306 307 310 314 313 315 319 320 320 335 336 336 333 332 333 333 332 330 328 327 326 325 324
284 280 281 284 288 287 285 283 288 292 290 289 291 289 288 289 291 292 293 294 295 297 299 300 303 304 306 307 310 311 312 314 318 322 322 331 335 335 335 331 332 333 331 329 328 327 326 324 323
279 279 281 281 286 285 284 284 288 290 289 288 286 286 287 288 289 291 292 293 295 296 298 299 301 303 305 308 309 311 312 313 315 318 324 329 329 334 333 331 330 330 329 328 328 325 326 325 323
283 281 280 283 286 283 283 283 285 287 285 284 285 286 286 287 289 290 291 293 294 296 297 298 299 301 303 304 305 307 307 311 314 316 322 325 327 331 331 330 329 328 327 328 327 323 321 320 323
282 280 280 283 285 282 282 282 284 284 283 284 285 285 285 286 286 288 289 291 293 294 297 298 300 300 302 304 307 307 309 312 314 314 317 320 326 329 330 329 328 326 325 324 324 322 318 318 318
283 280 281 279 282 283 281 281 282 284 284 285 286 286 286 285 284 286 287 289 292 294 296 298 300 301 301 304 307 308 310 311 310 312 316 317 324 327 326 326 324 325 324 322 321 321 320 316 315
278 284 282 279 277 277 281 275 280 281 282 283 284 284 284 284 285 286 286 288 290 292 295 299 300 301 301 304 306 305 306 305 309 310 315 316 319 326 325 324 324 323 324 322 321 322 321 321 315
281 284 281 277 275 276 276 275 280 279 279 280 282 283 283 284 284 285 286 287 290 291 295 299 300 300 300 304 305 306 306 309 311 310 311 313 316 322 325 325 323 322 322 322 321 321 321 320 319
284 281 276 275 277 274 273 274 277 278 276 279 281 281 282 282 283 284 286 288 289 291 295 297 302 301 300 304 305 306 306 307 308 308 309 309 312 320 323 325 324 322 322 322 323 322 321 320 320
282 279 276 274 274 273 273 273 278 278 280 280 279 280 281 282 282 282 283 285 287 289 292 295 299 299 300 303 305 305 305 307 307 307 307 308 308 316 321 325 323 323 324 324 324 321 321 321 320
278 277 274 267 270 272 276 272 277 280 283 282 281 280 281 281 281 282 283 285 287 288 290 292 294 296 299 304 304 307 308 309 308 308 308 309 308 316 322 324 325 325 324 324 324 323 322 320 319
278 276 277 272 269 268 274 275 279 281 281 280 279 279 278 279 280 281 282 284 286 287 288 290 292 294 296 298 300 300 304 305 305 309 311 309 309 311 312 317 315 317 317 319 323 322 321 320 319
281 279 274 274 268 267 272 270 273 276 277 278 277 277 277 279 279 280 281 283 285 286 287 289 290 291 293 294 295 297 299 300 300 303 306 306 305 305 305 305 307 307 309 309 310 308 308 307 306
279 277 275 275 273 269 268 273 278 277 278 277 277 277 277 278 278 279 281 282 284 284 286 287 288 289 290 292 294 294 295 296 297 299 300 301 299 299 297 297 297 298 298 299 299 298 300 298 297
280 279 277 273 270 274 272 273 282 280 280 280 277 278 278 278 278 279 280 281 282 282 283 285 286 287 288 289 290 291 291 293 294 294 295 295 295 295 295 296 295 294 294 295 294 293 294 295 295
Wind_Speed
12 6 2 4 5 5 7 6 4 5 3 2 2 4 4 9 6 3 8 18 21 13 10 15 12 14 15 16 16 15 16 17 19 19 19 18 18 18 17 16 15 14 14 12 14 13 12 13 14
8 3 3 2 5 7 6 4 7 5 3 10 7 8 8 4 5 3 9 22 19 10 8 14 12 13 14 16 15 15 16 17 17 18 19 18 18 18 17 15 14 14 14 16 16 15 14 15 14
4 3 4 4 5 11 7 1 3 5 7 4 4 2 6 3 5 5 13 18 17 15 4 10 9 13 13 12 15 15 15 17 16 18 17 18 18 17 16 15 14 14 15 15 15 16 15 13 13
2 3 3 7 13 10 5 2 4 4 1 6 6 7 3 4 2 9 15 17 17 16 12 7 9 14 15 14 12 15 15 16 17 16 16 16 17 16 15 15 15 14 14 15 15 15 13 13 14
1 1 5 7 13 6 4 3 5 6 3 3 7 2 6 3 3 14 16 15 17 16 14 12 10 11 16 16 17 15 15 16 15 16 16 15 15 16 15 15 15 14 15 15 16 16 14 13 14
3 2 6 12 14 4 1 6 6 6 4 8 4 10 5 5 6 18 17 17 16 13 13 17 9 11 13 16 17 17 17 16 16 15 15 15 15 16 16 15 17 17 15 15 17 16 16 14 15
3 3 7 9 8 5 1 7 3 7 7 4 9 8 4 7 8 18 16 16 14 12 9 9 12 17 9 12 14 18 18 17 17 17 17 16 16 16 17 14 15 17 15 15 17 15 16 14 16
1 3 3 4 5 3 4 8 5 7 6 8 2 6 4 7 22 19 17 13 12 12 9 7 6 7 9 11 14 14 16 14 16 15 14 13 13 13 13 12 13 15 17 16 18 16 15 16 16
1 4 4 2 3 1 2 7 3 4 12 13 9 13 15 20 18 18 17 14 12 9 11 7 7 8 7 7 9 12 14 16 14 13 13 14 14 16 16 15 15 16 15 17 16 17 15 14 11
2 3 1 0 2 6 9 8 10 7 12 16 16 15 12 12 17 17 16 14 15 15 13 11 9 8 7 6 7 6 14 13 14 15 17 15 16 15 15 14 12 13 14 15 16 16 15 13 9
2 3 1 2 4 5 7 13 6 8 15 10 15 18 17 18 16 15 15 15 15 14 12 9 11 10 7 4 4 3 5 7 11 17 15 16 11 11 11 9 10 11 12 11 13 12 10 14 10
4 2 3 2 2 5 11 12 12 17 20 16 16 16 17 17 15 15 16 17 16 16 15 11 8 10 9 4 1 3 5 6 9 13 17 12 9 11 12 9 13 11 9 13 12 9 11 12 13
2 2 5 8 13 17 15 20 15 18 17 15 12 12 12 15 16 17 18 17 18 18 16 15 8 8 7 6 3 3 2 4 9 12 15 13 12 11 12 12 12 11 12 11 11 11 11 12 12
6 10 15 9 10 10 10 14 4 4 4 8 10 9 14 19 19 18 18 19 18 18 17 15 14 7 7 6 5 2 4 3 8 10 13 18 14 11 12 12 13 12 12 12 11 11 11 10 10
5 8 8 9 6 6 8 13 8 6 11 12 9 17 19 15 16 17 17 18 18 17 17 16 14 13 12 13 5 3 2 4 5 7 15 19 17 14 14 11 12 12 12 15 12 12 11 10 9
4 6 8 2 7 2 7 12 4 12 15 22 20 15 13 16 15 15 17 17 17 18 17 17 14 15 14 9 9 5 4 2 6 3 6 19 20 16 14 11 12 13 12 12 12 12 11 10 10
3 8 13 10 4 9 3 21 13 21 18 18 13 9 12 15 17 17 19 17 17 18 18 18 16 15 14 13 10 11 5 2 3 6 7 11 14 18 16 13 12 15 12 11 12 12 13 11 10
13 9 12 14 13 11 18 23 21 18 13 9 6 9 14 17 19 20 20 18 18 18 18 17 15 16 14 12 11 9 8 2 1 4 4 10 8 17 17 13 14 14 11 12 11 12 12 11 10
9 12 16 19 9 18 12 23 18 10 8 5 10 14 18 21 22 20 20 19 18 17 17 17 16 15 11 10 10 9 10 6 2 2 9 11 9 14 18 13 14 15 15 16 17 11 12 8 8
9 12 11 13 10 14 12 20 3 4 4 4 11 17 22 24 23 22 21 20 18 18 18 17 16 15 13 10 9 8 6 8 2 3 4 12 13 12 14 11 15 16 13 15 14 14 7 6 7
10 6 15 20 25 6 11 6 7 4 4 7 15 21 24 23 22 24 22 21 20 18 19 18 18 16 13 13 9 9 9 7 4 3 2 4 15 6 3 2 4 7 13 11 11 12 13 9 7
6 10 19 18 8 5 7 7 4 3 6 9 21 26 25 24 23 21 22 22 19 20 19 19 18 16 13 14 11 14 10 10 7 2 3 5 12 5 8 10 8 7 4 8 7 6 9 9 9
9 21 14 4 2 6 3 5 1 2 7 19 24 26 23 23 22 23 22 22 19 17 17 16 15 14 13 13 12 10 11 8 8 4 2 7 13 10 9 11 11 11 8 7 12 13 12 9 7
15 9 0 2 2 4 5 6 5 5 9 25 26 24 23 22 22 22 22 20 16 16 15 14 12 11 11 11 12 13 10 10 7 7 6 3 9 11 10 13 12 11 11 12 11 13 15 12 11
9 7 6 4 3 5 4 8 7 2 13 22 28 26 24 22 20 20 21 20 16 17 15 13 13 6 8 7 10 9 11 12 12 7 3 8 6 11 9 11 12 12 13 14 13 14 13 12 11
5 5 3 8 8 12 6 5 5 3 16 21 21 21 22 21 19 19 20 18 14 15 14 14 13 9 6 5 1 4 4 4 7 6 5 5 2 10 8 8 10 12 11 11 9 7 8 10 10
2 3 2 6 2 5 4 4 5 7 16 20 23 22 21 21 20 20 20 17 16 13 13 13 13 10 9 7 6 5 5 3 3 4 5 3 2 7 8 3 6 7 6 6 8 9 10 11 11
2 3 2 2 7 9 4 5 9 20 23 22 24 21 20 20 20 19 17 17 15 13 12 12 12 11 9 8 6 5 6 4 4 5 5 5 5 5 5 3 3 5 4 4 4 3 3 7 3
3 1 1 3 4 5 8 4 3 15 19 19 20 20 18 18 17 16 16 15 15 13 12 12 12 12 10 9 7 5 5 4 3 4 3 2 7 4 2 7 5 7 7 8 9 8 6 7 7
1 3 3 2 1 6 5 7 2 12 15 12 16 17 17 15 16 15 15 14 14 14 14 12 11 10 9 8 7 5 4 3 2 0 2 4 6 3 5 4 6 9 9 8 9 9 8 7 9
Wind_Direction
321 315 266 210 213 245 234 242 274 185 206 70 342 216 219 304 291 347 329 356 339 313 227 185 199 187 181 176 173 173 169 169 164 168 166 169 167 169 166 163 153 153 163 163 146 133 146 147 137
321 295 206 163 245 231 242 202 217 251 12 313 274 252 235 198 38 40 3 345 335 320 232 203 183 193 192 179 178 176 172 172 175 169 169 170 169 172 169 166 157 154 161 159 152 137 129 133 135
286 308 210 210 227 235 259 82 354 313 332 315 283 309 335 45 59 15 352 346 350 346 305 218 173 192 196 198 179 180 179 177 179 178 176 172 172 176 174 172 163 165 166 167 165 156 139 138 141
293 171 151 236 226 249 263 69 6 328 171 23 337 259 133 49 65 7 347 353 1 354 331 256 197 197 190 194 198 186 185 185 186 184 181 179 172 179 174 177 173 177 170 160 163 154 136 140 127
27 219 215 240 251 262 256 328 312 283 291 323 336 292 297 171 68 4 354 354 359 356 346 295 210 230 196 190 190 195 193 189 188 187 188 187 179 175 177 180 181 178 174 160 159 154 142 144 133
157 269 222 236 235 241 286 346 307 284 300 313 287 313 269 131 2 354 351 346 346 355 356 353 277 224 221 203 193 192 196 192 188 189 190 188 184 184 183 186 189 176 171 168 166 159 152 153 142
275 227 258 268 253 258 38 348 314 325 295 328 331 288 290 231 351 345 340 333 331 341 347 1 360 344 230 238 212 194 196 194 190 188 189 190 193 191 180 178 175 176 175 166 158 163 157 165 149
42 263 236 227 249 273 12 336 328 322 309 322 312 261 272 322 333 330 328 325 325 329 336 342 353 341 343 272 228 220 197 195 192 189 191 183 172 175 173 171 172 169 169 153 160 161 159 159 153
303 232 245 260 231 3 338 332 311 301 280 293 248 280 290 306 317 322 324 323 324 325 331 332 329 328 329 323 285 228 230 197 197 194 187 180 190 185 181 192 171 174 165 159 163 160 162 158 146
328 254 304 15 266 279 297 299 312 296 285 270 283 269 282 298 313 315 319 321 323 323 324 319 320 312 314 318 315 229 231 215 204 202 199 200 201 192 195 189 178 175 163 164 169 159 150 162 179
3 283 44 245 255 273 292 286 256 268 275 277 287 307 313 312 311 310 310 310 313 311 312 303 307 311 302 299 333 297 233 220 216 211 207 206 202 194 193 189 190 190 177 181 178 166 184 197 199
269 282 264 291 241 283 283 288 258 249 256 287 295 301 301 305 312 314 309 309 310 311 309 306 288 299 297 314 311 340 351 229 224 215 207 203 199 195 190 194 191 193 190 190 191 193 203 203 206
255 335 296 279 286 280 266 251 259 271 276 279 290 298 307 314 311 308 309 302 297 296 299 298 289 282 297 301 321 327 333 354 251 226 215 202 198 195 193 195 193 192 190 197 194 199 201 202 201
340 302 283 294 263 253 257 276 272 271 338 299 289 298 318 323 321 315 306 302 298 298 294 291 289 274 269 267 285 358 317 321 336 231 220 214 201 192 198 192 194 194 195 193 196 194 197 200 197
304 293 258 231 295 292 315 269 216 281 326 315 305 305 326 329 329 321 321 311 300 292 292 288 283 279 268 268 259 272 287 296 289 320 228 217 208 194 188 198 196 192 195 194 196 196 197 196 201
274 248 332 10 311 316 341 287 277 313 316 310 311 322 331 332 326 321 319 314 309 304 294 291 286 281 273 260 259 259 242 325 297 252 285 252 193 191 193 189 200 196 187 193 193 194 196 200 197
24 312 322 326 272 320 274 295 294 306 308 309 322 341 346 338 333 326 320 314 309 303 296 291 286 277 269 261 245 246 243 230 291 294 306 284 211 197 192 187 196 196 192 191 192 193 198 198 200
320 318 310 312 319 321 292 284 305 313 315 322 15 351 341 331 328 326 317 314 309 301 295 287 284 278 270 265 260 253 252 223 154 292 305 292 250 227 196 194 190 186 191 191 192 195 198 202 202
291 290 294 304 323 319 301 300 319 350 89 50 2 346 338 330 323 318 317 314 310 301 297 291 283 278 266 253 248 244 241 234 152 18 318 300 275 244 209 199 195 184 190 188 188 182 180 198 198
295 296 307 307 311 321 309 303 48 121 117 31 350 343 336 326 324 321 318 314 311 303 299 290 283 275 260 249 244 255 250 238 217 182 222 305 282 243 218 213 208 193 187 190 183 179 174 184 173
310 261 311 309 321 277 302 268 211 198 242 317 343 338 330 327 325 320 316 315 311 307 303 291 284 276 266 252 237 241 244 242 248 291 55 289 285 189 159 115 40 186 180 181 176 183 180 181 188
299 329 316 310 319 319 14 302 261 235 298 338 340 336 327 331 326 319 316 313 313 309 301 291 282 268 262 248 227 234 230 240 226 200 295 332 305 238 205 191 196 188 256 163 164 174 206 204 193
275 317 322 313 215 299 143 268 299 337 355 339 336 335 329 328 326 323 319 315 311 307 297 299 282 267 261 239 228 231 233 243 237 211 326 18 290 288 208 178 193 174 188 202 174 198 200 196 192
309 313 143 131 264 258 119 355 286 14 346 337 336 330 329 328 327 326 322 317 319 314 313 315 291 271 258 230 230 225 235 234 226 230 237 86 303 275 222 204 203 194 201 209 206 199 205 195 209
353 331 342 323 292 303 141 307 307 149 349 345 331 328 330 331 330 328 325 325 323 321 321 330 341 312 239 230 228 235 235 233 232 214 247 213 291 269 248 213 198 194 201 200 200 198 204 203 206
20 11 15 307 320 312 309 243 346 306 338 338 331 330 330 333 332 332 329 325 321 324 325 336 351 4 360 308 298 290 248 265 239 232 197 235 306 302 249 219 198 180 187 180 188 203 203 198 210
67 359 343 263 191 264 282 267 246 329 333 341 341 339 336 335 335 333 331 329 328 327 329 334 343 351 358 352 354 310 315 340 321 285 251 228 98 287 297 274 144 147 156 168 193 202 206 204 205
348 62 243 178 307 312 305 279 307 335 341 341 341 336 333 333 336 334 333 331 331 329 333 338 342 343 348 354 344 335 315 310 323 290 252 226 90 300 288 56 74 102 93 80 111 106 103 115 90
160 197 177 270 262 302 312 4 265 343 337 331 333 332 333 333 335 333 329 332 333 332 341 343 343 341 345 342 331 344 325 333 317 273 243 222 78 286 19 59 61 80 78 71 69 44 67 90 97
284 245 224 257 263 243 273 281 236 4 335 325 333 333 335 333 336 335 337 338 341 345 346 343 343 338 340 327 341 352 347 357 3 251 116 92 95 56 52 83 79 71 71 72 84 95 72 83 92